• In Belarus
  • List of Countries
  • For 7 days
  • Water Temperature
  • Satellite Maps
  • Weather Map
  • Weather Widgets
  • user-avatar
    Login

    Hourly Weather Pusan

    Today, 12 December, Wednesday

    Time Temperature Precipitation Wind Pressure Humidity
    00:00 -2°C° 0 mm 4 mps 766 mmHg 97%
    01:00 -2°C° 0 mm 5 mps 766 mmHg 96%
    02:00 -3°C° 0 mm 6 mps 766 mmHg 96%
    03:00 -4°C° 0 mm 7 mps 766 mmHg 96%
    04:00 -4°C° 0 mm 7 mps 766 mmHg 94%
    05:00 -6°C° 0 mm 7 mps 767 mmHg 91%
    06:00 -6°C° 0 mm 7 mps 767 mmHg 89%
    07:00 -4°C° 0 mm 7 mps 767 mmHg 83%
    08:00 -4°C° 0 mm 7 mps 768 mmHg 77%
    09:00 -3°C° 0 mm 7 mps 768 mmHg 64%
    10:00 -2°C° 0 mm 7 mps 768 mmHg 57%
    11:00 -1°C° 0 mm 7 mps 768 mmHg 49%
    12:00 0°C° 0 mm 7 mps 768 mmHg 41%
    13:00 0°C° 0 mm 7 mps 768 mmHg 39%
    14:00 0°C° 0 mm 7 mps 768 mmHg 37%
    15:00 +1°C° 0 mm 6 mps 768 mmHg 35%
    16:00 0°C° 0 mm 5 mps 768 mmHg 40%
    17:00 -2°C° 0 mm 5 mps 768 mmHg 46%
    18:00 -5°C° 0 mm 5 mps 769 mmHg 52%
    19:00 -5°C° 0 mm 5 mps 769 mmHg 53%
    20:00 -4°C° 0 mm 4 mps 769 mmHg 54%
    21:00 -5°C° 0 mm 4 mps 769 mmHg 55%
    22:00 -5°C° 0 mm 4 mps 769 mmHg 56%
    23:00 -5°C° 0 mm 4 mps 769 mmHg 56%

    Tomorrow, 13 December, Thursday

    Time Temperature Precipitation Wind Pressure Humidity
    00:00 -5°C° 0 mm 4 mps 769 mmHg 56%
    01:00 -5°C° 0 mm 4 mps 769 mmHg 57%
    02:00 -5°C° 0 mm 4 mps 769 mmHg 57%
    03:00 -5°C° 0 mm 4 mps 769 mmHg 58%
    04:00 -5°C° 0 mm 4 mps 769 mmHg 59%
    05:00 -5°C° 0 mm 4 mps 769 mmHg 60%
    06:00 -5°C° 0 mm 4 mps 769 mmHg 61%
    07:00 -4°C° 0 mm 4 mps 770 mmHg 57%
    08:00 -3°C° 0 mm 4 mps 770 mmHg 53%
    09:00 -2°C° 0 mm 4 mps 770 mmHg 49%
    10:00 0°C° 0 mm 4 mps 770 mmHg 49%
    11:00 +2°C° 0 mm 5 mps 769 mmHg 49%
    12:00 +5°C° 0 mm 5 mps 769 mmHg 48%
    13:00 +4°C° 0 mm 6 mps 769 mmHg 51%
    14:00 +4°C° 0 mm 6 mps 768 mmHg 54%
    15:00 +3°C° 0 mm 7 mps 768 mmHg 57%
    16:00 +3°C° 0 mm 7 mps 768 mmHg 63%
    17:00 +2°C° 0 mm 7 mps 769 mmHg 68%
    18:00 +1°C° 0 mm 6 mps 769 mmHg 74%
    19:00 -1°C° 0 mm 7 mps 769 mmHg 77%
    20:00 -3°C° 0 mm 7 mps 770 mmHg 79%
    21:00 -4°C° 0 mm 7 mps 770 mmHg 82%
    22:00 -4°C° 0 mm 7 mps 770 mmHg 80%
    23:00 -6°C° 0 mm 7 mps 771 mmHg 78%

    Day after tomorrow, 14 December, Friday

    Time Temperature Precipitation Wind Pressure Humidity
    00:00 -5°C° 0 mm 6 mps 771 mmHg 76%
    01:00 -6°C° 0 mm 6 mps 771 mmHg 74%
    02:00 -6°C° 0 mm 6 mps 771 mmHg 71%
    03:00 -6°C° 0 mm 6 mps 772 mmHg 69%
    04:00 -6°C° 0 mm 6 mps 772 mmHg 67%
    05:00 -7°C° 0 mm 5 mps 772 mmHg 65%
    06:00 -7°C° 0 mm 5 mps 772 mmHg 64%
    07:00 -6°C° 0 mm 5 mps 772 mmHg 58%
    08:00 -4°C° 0 mm 4 mps 772 mmHg 52%
    09:00 -4°C° 0 mm 4 mps 773 mmHg 46%
    10:00 -2°C° 0 mm 4 mps 772 mmHg 38%
    11:00 0°C° 0 mm 4 mps 772 mmHg 31%
    12:00 +3°C° 0 mm 3 mps 772 mmHg 23%
    13:00 +3°C° 0 mm 3 mps 772 mmHg 24%
    14:00 +3°C° 0 mm 3 mps 772 mmHg 25%
    15:00 +3°C° 0 mm 3 mps 771 mmHg 26%
    16:00 +2°C° 0 mm 3 mps 771 mmHg 33%
    17:00 -1°C° 0 mm 4 mps 772 mmHg 40%
    18:00 -3°C° 0 mm 4 mps 772 mmHg 46%
    19:00 -4°C° 0 mm 4 mps 772 mmHg 47%
    20:00 -4°C° 0 mm 4 mps 772 mmHg 48%
    21:00 -5°C° 0 mm 4 mps 773 mmHg 50%
    22:00 -5°C° 0 mm 4 mps 773 mmHg 49%
    23:00 -5°C° 0 mm 4 mps 773 mmHg 48%

    15 December, Saturday

    Time Temperature Precipitation Wind Pressure Humidity
    00:00 -5°C° 0 mm 3 mps 773 mmHg 47%
    01:00 -5°C° 0 mm 3 mps 773 mmHg 45%
    02:00 -5°C° 0 mm 3 mps 772 mmHg 43%
    03:00 -5°C° 0 mm 3 mps 772 mmHg 42%
    04:00 -5°C° 0 mm 3 mps 772 mmHg 41%
    05:00 -5°C° 0 mm 3 mps 772 mmHg 39%
    06:00 -5°C° 0 mm 3 mps 772 mmHg 38%
    07:00 -4°C° 0 mm 3 mps 772 mmHg 35%
    08:00 -2°C° 0 mm 2 mps 772 mmHg 31%
    09:00 -1°C° 0 mm 2 mps 772 mmHg 28%
    10:00 +2°C° 0 mm 2 mps 772 mmHg 25%
    11:00 +4°C° 0 mm 2 mps 772 mmHg 22%
    12:00 +7°C° 0 mm 1 mps 771 mmHg 18%
    13:00 +7°C° 0 mm 1 mps 771 mmHg 19%
    14:00 +8°C° 0 mm 1 mps 770 mmHg 20%
    15:00 +8°C° 0 mm 1 mps 770 mmHg 21%
    16:00 +5°C° 0 mm 2 mps 770 mmHg 26%
    17:00 +3°C° 0 mm 2 mps 770 mmHg 31%
    18:00 +1°C° 0 mm 2 mps 770 mmHg 36%
    19:00 -1°C° 0 mm 2 mps 770 mmHg 37%
    20:00 -1°C° 0 mm 2 mps 770 mmHg 38%
    21:00 -1°C° 0 mm 2 mps 770 mmHg 39%
    22:00 -2°C° 0 mm 3 mps 769 mmHg 39%
    23:00 -2°C° 0 mm 3 mps 769 mmHg 39%

    16 December, Sunday

    Time Temperature Precipitation Wind Pressure Humidity
    00:00 -2°C° 0 mm 3 mps 769 mmHg 40%
    01:00 -2°C° 0 mm 3 mps 768 mmHg 40%
    02:00 -2°C° 0 mm 3 mps 768 mmHg 41%
    03:00 -2°C° 0 mm 3 mps 768 mmHg 41%
    04:00 -2°C° 0 mm 3 mps 767 mmHg 41%
    05:00 -2°C° 0 mm 3 mps 767 mmHg 40%
    06:00 -2°C° 0 mm 3 mps 767 mmHg 40%
    07:00 -1°C° 0 mm 3 mps 767 mmHg 37%
    08:00 0°C° 0 mm 3 mps 767 mmHg 34%
    09:00 0°C° 0 mm 3 mps 766 mmHg 31%
    10:00 +2°C° 0 mm 3 mps 766 mmHg 30%
    11:00 +3°C° 0 mm 3 mps 766 mmHg 29%
    12:00 +4°C° 0 mm 3 mps 765 mmHg 29%
    13:00 +5°C° 0 mm 3 mps 765 mmHg 31%
    14:00 +5°C° 0 mm 3 mps 764 mmHg 33%
    15:00 +7°C° 0 mm 3 mps 763 mmHg 35%
    16:00 +4°C° 0 mm 3 mps 763 mmHg 39%
    17:00 +2°C° 0 mm 3 mps 763 mmHg 44%
    18:00 0°C° 0 mm 3 mps 763 mmHg 48%
    19:00 -1°C° 0 mm 4 mps 763 mmHg 51%
    20:00 0°C° 0 mm 4 mps 763 mmHg 55%
    21:00 0°C° 0 mm 4 mps 763 mmHg 58%
    22:00 0°C° 0 mm 5 mps 762 mmHg 67%
    23:00 0°C° 0 mm 5 mps 762 mmHg 75%

    17 December, Monday

    Time Temperature Precipitation Wind Pressure Humidity
    00:00 -1°C° 0 mm 6 mps 761 mmHg 84%
    01:00 -1°C° 0.1 mm 6 mps 761 mmHg 88%
    02:00 -2°C° 0.1 mm 6 mps 761 mmHg 91%
    03:00 -2°C° 0.1 mm 6 mps 760 mmHg 94%
    04:00 -2°C° 0 mm 6 mps 760 mmHg 95%
    05:00 -2°C° 0 mm 7 mps 760 mmHg 96%
    06:00 -2°C° 0 mm 7 mps 760 mmHg 97%
    07:00 -1°C° 0 mm 7 mps 760 mmHg 93%
    08:00 -1°C° 0 mm 7 mps 761 mmHg 88%
    09:00 0°C° 0 mm 8 mps 761 mmHg 84%
    10:00 +1°C° 0 mm 8 mps 761 mmHg 73%
    11:00 +2°C° 0 mm 8 mps 761 mmHg 62%
    12:00 +4°C° 0 mm 8 mps 761 mmHg 51%
    13:00 +4°C° 0 mm 8 mps 761 mmHg 50%
    14:00 +4°C° 0 mm 8 mps 761 mmHg 49%
    15:00 +4°C° 0 mm 8 mps 761 mmHg 48%
    16:00 +2°C° 0 mm 8 mps 761 mmHg 56%
    17:00 0°C° 0 mm 7 mps 761 mmHg 63%
    18:00 -1°C° 0 mm 7 mps 762 mmHg 71%
    19:00 -2°C° 0 mm 7 mps 762 mmHg 74%
    20:00 -2°C° 0 mm 6 mps 762 mmHg 78%
    21:00 -3°C° 0 mm 6 mps 762 mmHg 81%
    22:00 -3°C° 0 mm 6 mps 763 mmHg 81%
    23:00 -3°C° 0 mm 6 mps 763 mmHg 81%
    Show more